Location: Fontvieille
(43.3228°N, 5.4926°E)
Time: 01:45:02
(UTC+00:00)

Daily predictions for brighter satellites

Satellite Brightness Start Highest point End
(mag) Time Altitude Azimuth Time Altitude Azimuth Time Altitude Azimuth
Cosmos 2263 Rocket 4.4 03:01:26 19° NE 03:01:26 19° NE 03:03:15 10° NE
CZ-4C R/B 4.2 03:25:49 18° SE 03:27:03 20° ESE 03:30:54 10° ENE
ATLAS 3B R/B 4.1 03:30:35 28° NNE 03:32:23 31° NE 03:38:34 10° E
Cosmos 1943 4.2 03:36:00 43° ESE 03:36:00 43° ESE 03:40:05 10° SE
Lacrosse 4 Rocket 3.8 03:38:11 21° E 03:38:11 21° E 03:40:05 10° ESE
ALOS 3.9 03:50:47 10° NNE 03:53:16 29° NE 03:53:16 29° NE
NOSS 3-4 (A) 3.3 04:00:50 80° NE 04:00:50 80° NE 04:06:44 10° NE
NOSS 3-4 (C) 3.3 04:00:54 81° NE 04:00:54 81° NE 04:06:52 10° NE
NOSS 3-2 (C) 3.9 04:00:08 68° W 04:00:59 74° WSW 04:09:34 10° SSE
Milstar 3 Cent rocket 4.2 04:00:16 24° SSW 04:02:44 29° SSE 04:12:15 10° ESE
CENTAUR R/B 3.1 04:01:35 62° WNW 04:03:00 73° WSW 04:11:50 10° SSE
Cosmos 158 Rocket 4.5 04:10:38 45° NNE 04:11:35 52° ENE 04:16:26 10° SE
SL-4 R/B 4.2 04:15:02 18° NE 04:15:02 18° NE 04:16:19 10° NE
Cosmos 1151 Rocket 3.6 04:17:01 55° ESE 04:17:01 55° ESE 04:20:42 10° SSE
Cosmos 1844 Rocket 4.3 04:11:34 10° SSE 04:16:33 33° ESE 04:21:34 10° NE
Cosmos 1782 4.2 04:16:34 29° NE 04:17:51 37° ENE 04:21:36 10° SE
ATLAS 2AS CENTAUR R/B 2.9 04:15:30 30° SW 04:19:58 89° WNW 04:27:54 10° NE
ERS-2 3.9 04:17:30 10° SSE 04:19:17 27° SE 04:19:17 27° SE
Cosmos 1680 Rocket 4.2 04:20:02 26° N 04:22:50 53° ENE 04:28:00 10° SE
ATLAS 5 CENTAUR R/B 4.3 04:31:19 12° NNE 04:31:19 12° NNE 04:31:30 10° NNE
Atlas Centaur 2 4.0 04:26:41 19° SSW 04:29:03 23° S 04:33:27 10° SE
RESURS DK-1 3.4 04:26:56 11° S 04:30:41 45° ESE 04:34:41 10° NE
Lacrosse 5 1.7 04:32:03 73° WNW 04:32:14 74° NW 04:37:19 10° NE
ATLAS CENTAUR R/B 2.8 04:32:06 25° NNE 04:32:58 28° NE 04:36:23 10° ESE
ADEOS 3.4 04:29:57 10° NNE 04:35:13 80° WNW 04:40:25 10° SSW
Cosmos 1328 Rocket 3.5 04:35:39 59° N 04:36:29 88° ENE 04:40:56 10° S
OAO 2 Rocket 4.5 04:37:06 29° SSW 04:38:15 32° S 04:42:45 10° ESE
Cosmos 2263 Rocket 3.0 04:43:11 33° NNW 04:43:11 33° NNW 04:47:14 10° N
Cosmos 2112 Rocket 4.3 04:38:54 20° NNW 04:42:38 68° ENE 04:47:57 10° SSE
Gbstr 26 Del rocket 2.9 04:43:34 57° NNE 04:43:42 57° NNE 04:47:33 10° ESE
SJ 16-02 2.3 04:45:52 34° NNW 04:45:52 34° NNW 04:48:37 10° N
Meteor 1-4 Rocket 3.9 04:46:47 27° S 04:46:47 27° S 04:48:32 10° S
Cosmos 1898 Rocket 3.6 04:46:27 10° SSW 04:51:45 80° ESE 04:57:06 10° NNE
Meteor 1-26 Rocket 4.1 04:48:59 13° NNW 04:54:09 65° W 04:59:40 10° S
FALCON 9 DEB 3.6 04:56:35 43° NNE 04:56:35 43° NNE 04:59:03 10° NE
FALCON 9 DEB 3.7 04:56:45 41° NNE 04:56:45 41° NNE 04:59:10 10° NE
Cosmos 1743 Rocket 4.1 04:54:55 10° S 04:59:17 61° E 05:03:43 10° NNE
FENGYUN 3A 3.9 04:54:54 10° N 05:00:00 43° WNW 05:05:04 10° SW
Cosmos 1408 Rocket 3.5 04:56:51 10° SSW 05:01:16 66° W 05:05:43 10° N
NOSS 7 (H) 4.3 05:01:45 22° SSW 05:03:48 76° SE 05:06:47 10° NE
COSMO-SKYMED 1 2.4 05:00:24 10° S 05:04:43 69° W 05:07:59 17° NNW
Cosmos 2181 Rocket 4.0 04:59:16 10° NNW 05:05:17 54° W 05:11:12 10° SSW
Cosmos 1709 Rocket 4.5 05:00:15 10° SW 05:06:04 37° WNW 05:11:56 10° N
Cosmos 1937 Rocket 3.5 05:03:42 10° SSW 05:08:50 82° ESE 05:14:03 10° NNE
Meteor 2-3 Rocket 4.1 05:08:00 10° SW 05:13:22 41° WNW 05:18:49 10° N
Lacrosse 4 Rocket 2.4 05:14:32 28° WSW 05:14:42 28° WSW 05:18:27 10° SSW
CZ-4C R/B 2.1 05:11:05 18° SW 05:14:47 59° NW 05:20:39 10° NNE
Cosmos 2154 Rocket 4.3 05:08:53 10° S 05:15:03 69° E 05:21:17 10° NNE
MOS 1 Rocket 3.9 05:10:23 10° SSE 05:15:06 63° ENE 05:20:10 10° N
Cosmos 1689 Rocket 2.0 05:14:58 10° S 05:17:47 54° W 05:18:12 48° WNW
Cosmos 1943 4.3 05:17:54 22° W 05:18:06 22° W 05:22:23 10° SSW
CZ-4B R/B 3.1 05:14:15 10° N 05:18:42 61° WNW 05:23:00 10° SSW
FALCON 9 DEB 3.5 05:18:33 36° NW 05:18:48 37° NNW 05:21:50 10° NE
SAR-Lupe-4 4.1 05:18:16 10° SSW 05:21:36 37° W 05:22:38 30° WNW
Meteor 1-10 Rocket 4.4 05:16:08 10° N 05:21:43 77° E 05:27:20 10° SSE
Aureole 2 Rocket 2.2 05:20:22 10° S 05:22:52 58° ESE 05:25:23 10° NNE
ATLAS 3B R/B 2.7 05:17:51 16° NW 05:23:40 73° WSW 05:30:52 10° SSE
Cosmos 1862 3.2 05:21:59 10° S 05:26:02 79° W 05:30:07 10° N
Genesis I 3.4 05:24:54 17° WSW 05:27:32 47° NW 05:31:16 10° NNE
YAOGAN 6 3.2 05:25:57 10° NNE 05:29:24 57° E 05:32:49 10° S
deb Chang Zheng 4 4.4 05:28:38 10° N 05:32:19 28° WNW 05:36:00 10° SW
ALOS 3.6 05:29:05 10° NNW 05:31:45 19° NW 05:31:45 19° NW
Cosmos 858 Rocket 4.4 05:28:00 10° SSW 05:33:09 64° WNW 05:38:23 10° NNE
Cosmos 2327 Rocket 4.4 05:28:22 10° S 05:34:28 82° W 05:40:35 10° N
Cosmos 990 Rocket 4.4 05:29:42 10° SW 05:34:35 39° WNW 05:39:32 10° N
Cosmos 2074 Rocket 4.1 05:29:52 10° SSW 05:35:54 53° WNW 05:41:59 10° N
PSLV R/B 3.6 05:34:23 10° N 05:38:15 82° WNW 05:42:01 10° SSW
ASTRO F (AKARI) 4.3 05:37:09 10° N 05:40:10 52° WNW 05:43:14 10° SSW
BREEZE M DEB (TANK) 2.9 05:32:55 10° SW 05:41:39 78° SSE 05:44:32 10° ENE
Cosmos 405 Rocket 2.7 05:38:17 10° SSW 05:41:54 54° WNW 05:45:35 10° N
SL-24 DEB 4.4 05:37:24 10° S 05:42:09 81° E 05:46:58 10° N
EO 1 Delta rocket 4.0 05:41:00 10° S 05:46:01 53° W 05:50:34 10° NNW
Cosmos 1295 Rocket 4.4 05:41:19 10° S 05:47:25 83° W 05:53:32 10° N
Cosmos 1812 2.9 05:44:21 10° NNW 05:48:05 49° W 05:51:47 10° S
Cosmos 2228 Rocket 3.2 05:46:19 10° NNW 05:50:38 52° W 05:54:53 10° S
Cosmos 1633 Rocket 4.5 05:47:54 10° SSE 05:52:04 42° E 05:56:15 10° NNE
SL-4 R/B 3.3 05:50:37 12° NW 05:53:21 24° N 05:56:24 10° ENE
Cosmos 2184 Rocket 4.4 05:47:36 10° SW 05:53:31 41° WNW 05:59:32 10° N
Cosmos 1782 4.4 05:52:15 14° WNW 05:53:50 17° W 05:56:25 10° SW
GPS 2-04 Rocket1 4.5 05:51:17 10° WSW 05:54:20 22° SSW 05:57:17 10° SE
Cosmos 1356 3.8 05:54:12 10° S 05:57:34 66° E 06:00:58 10° NNE
FALCON 9 DEB 4.5 05:56:58 14° WNW 05:58:54 22° NNW 06:01:28 10° NE
USA 234 3.4 05:52:26 10° NE 05:59:00 82° SE 06:05:34 10° SW
Cosmos 1844 Rocket 3.2 05:55:05 10° SW 06:00:20 39° WNW 06:05:38 10° NNE
EXPRESS MD2 4.4 06:03:37 10° WNW 06:07:35 66° NNE 06:15:58 10° ESE
Cosmos 1707 Rocket 3.6 06:03:21 10° N 06:07:43 87° E 06:12:02 10° S
COSMOS 2455 2.8 06:02:25 10° SW 06:08:25 70° WNW 06:14:29 10° NNE
RESURS DK-1 3.8 06:05:55 10° W 06:08:56 19° NW 06:11:59 10° N
MOS 1-B 4.3 06:03:46 10° N 06:09:34 70° WNW 06:15:20 10° SSW
BREEZE-M (TANK) 3.5 06:02:27 10° SW 06:10:19 59° SSE 06:13:00 10° ENE
ATLAS CENTAUR R/B 2.3 06:08:30 10° WNW 06:11:47 27° WSW 06:15:11 10° S
ATLAS 2AS CENTAUR R/B 3.8 06:05:13 10° W 06:12:00 30° NNW 06:18:40 10° NNE
BREEZE-M DEB 3.6 06:03:30 10° WNW 06:12:08 54° SW 06:15:00 10° SE
NOAA 6 4.1 06:07:39 10° N 06:12:40 56° WNW 06:17:38 10° SSW
Cosmos 1844 4.2 06:09:09 10° WSW 06:14:16 37° WNW 06:19:26 10° N
H-2A R/B 3.9 06:12:01 10° NNW 06:15:09 23° WNW 06:18:14 10° WSW
Lacrosse 5 3.1 06:11:53 10° WNW 06:15:57 24° NNW 06:20:01 10° NNE
Atlas Centaur 2 4.0 06:13:13 10° SW 06:17:13 19° SSW 06:20:41 10° SSE
Cosmos 372 Rocket 4.1 06:12:40 10° SW 06:17:36 49° WNW 06:22:34 10° N
CZ-4B DEB 4.4 06:12:31 10° N 06:17:49 51° WNW 06:23:04 10° SW
Cosmos 1437 Rocket 3.3 06:14:43 10° NNW 06:18:13 36° W 06:21:41 10° SSW
Geosat 4.4 06:16:02 10° SE 06:20:59 66° ENE 06:26:00 10° NNW
Okean O Rocket 1.6 06:16:59 10° N 06:21:26 75° WNW 06:25:52 10° SSW
